User: anonymous   Login
Location: Heidgraben
(53.7081°N, 9.6576°E)
Time: 23:07:23
(UTC+00:00)
Language:

Okean 3 Rocket - Orbit

View from above orbital plane
View from above orbital plane
View from above satellite
View from above satellite

Ground track
Ground track

The orbit data is extracted from the following two-line orbital elements,

1 21398U 91039B   20272.80401437  .00000067  00000-0  57810-5 0  9994
2 21398  82.5259 189.3872 0020619 206.7956 153.2194 14.79772193581309
Epoch (UTC): 28 September 2020 19:17:46
Eccentricity: 0.0020619
inclination: 82.5259°
perigee height: 615 km
apogee height: 644 km
right ascension of ascending node: 189.3872°
argument of perigee: 206.7956°
revolutions per day: 14.79772193
mean anomaly at epoch: 153.2194°
orbit number at epoch: 58130

The dashed part of the orbit path shows where the satellite is in the earth's shadow,  

DLR